Weather History for Eastman, GA

Change the Weather History Date:

Wednesday, January 15, 2014

  Actual Average Record
Temperature  
Mean Temperature 48 °F -  
Max Temperature 63 °F 55 °F 80 °F (2013)
Min Temperature 34 °F 34 °F 34 °F (2014)
Degree Days  
Heating Degree Days 16    
Moisture  
Dew Point 38 °F    
Average Humidity 74    
Maximum Humidity 100    
Minimum Humidity 41    
Precipitation  
Precipitation 0.00 in - - ()
Sea Level Pressure  
Sea Level Pressure 30.01 in    
Wind  
Wind Speed 2 mph (WNW)    
Max Wind Speed 13 mph    
Max Gust Speed 20 mph    
Visibility 8 miles    
Events Fog    
Averages and records for this station are not official NWS values.
T = Trace of Precipitation, MM = Missing Value Source: NWS Daily Summary

Daily Weather History Graph

Daily Weather History Graph

Search for Another Location

Airport:

Trip Planner

Search our weather history database for the weather conditions in past years. The results will help you decide how hot, cold, wet, or windy it might be!

Date:

Astronomy

Jan. 15, 2014 Rise Set
Actual Time 7:33 AM EST 5:50 PM EST
Civil Twilight 7:07 AM EST 6:16 PM EST
Nautical Twilight 6:37 AM EST 6:47 PM EST
Astronomical Twilight 6:07 AM EST 7:16 PM EST
Moon 5:43 PM EST (1/15) 6:51 AM EST (1/15)
Length of Visible Light 11h 09m
Length of Day
10h 16m
Full, 100% of the Moon is Illuminated
Jan 15
Full
Jan 15
Full
Jan 24
Last Quarter
Jan 30
New
Feb 6
First Quarter

Hourly Weather History & Observations

Time (EST) Temp. Windchill Dew Point Humidity Pressure Visibility Wind Dir Wind Speed Gust Speed Precip Events Conditions
12:15 AM 41.5 °F - 41.5 °F 100% 30.05 in 10.0 mi Calm Calm - N/A   Clear
12:35 AM 39.7 °F - 39.7 °F 100% 30.04 in 1.2 mi Calm Calm - N/A   Mist
12:55 AM 40.5 °F - 40.5 °F 100% 30.03 in 0.8 mi Calm Calm - N/A   Mist
1:15 AM 39.7 °F - 39.7 °F 100% 30.03 in 0.5 mi Calm Calm - N/A Fog Fog
1:35 AM 40.5 °F - 40.5 °F 100% 30.03 in 0.8 mi Calm Calm - N/A   Mist
1:55 AM 38.7 °F - 38.7 °F 100% 30.03 in 1.5 mi Calm Calm - N/A   Scattered Clouds
2:15 AM 37.0 °F - 37.0 °F 100% 30.03 in 1.5 mi Calm Calm - N/A   Mist
2:35 AM 37.2 °F - 37.2 °F 100% 30.03 in 1.0 mi Calm Calm - N/A   Mist
2:55 AM 38.7 °F - 38.7 °F 100% 30.03 in 5.0 mi Calm Calm - N/A   Clear
3:15 AM 36.3 °F - 36.3 °F 100% 30.03 in 0.8 mi Calm Calm - N/A   Mist
3:35 AM 37.6 °F - 37.6 °F 100% 30.03 in 10.0 mi Calm Calm - N/A   Clear
3:55 AM 36.9 °F - 36.9 °F 100% 30.02 in 1.0 mi Calm Calm - N/A   Mist
4:15 AM 35.8 °F - 35.8 °F 100% 30.02 in 5.0 mi Calm Calm - N/A   Clear
4:35 AM 36.3 °F - 36.3 °F 100% 30.02 in 0.5 mi Calm Calm - N/A Fog Fog
4:55 AM 36.9 °F - 36.9 °F 100% 30.02 in 0.5 mi Calm Calm - N/A Fog Fog
5:15 AM 36.3 °F - 36.3 °F 100% 30.02 in 0.8 mi Calm Calm - N/A   Mist
5:35 AM 36.1 °F - 36.1 °F 100% 30.02 in 2.0 mi Calm Calm - N/A   Clear
5:55 AM 35.8 °F - 35.8 °F 100% 30.02 in 3.0 mi Calm Calm - N/A   Clear
6:15 AM 36.0 °F - 36.0 °F 100% 30.02 in 2.0 mi Calm Calm - N/A   Clear
6:35 AM 34.9 °F - 34.9 °F 100% 30.02 in 7.0 mi Calm Calm - N/A   Clear
6:55 AM 34.3 °F - 34.3 °F 100% 30.02 in 0.8 mi Calm Calm - N/A   Mist
7:15 AM 34.7 °F - 34.7 °F 100% 30.02 in 3.0 mi Calm Calm - N/A   Clear
7:35 AM 34.9 °F - 34.9 °F 100% 30.03 in 0.8 mi Calm Calm - N/A   Mist
7:55 AM 35.1 °F - 35.1 °F 100% 30.04 in 0.5 mi Calm Calm - N/A Fog Fog
8:15 AM 35.4 °F - 35.4 °F 100% 30.04 in 10.0 mi Calm Calm - N/A   Clear
8:35 AM 36.5 °F - 36.5 °F 100% 30.05 in 10.0 mi Calm Calm - N/A   Clear
8:55 AM 41.4 °F - 41.4 °F 100% 30.05 in 10.0 mi Calm Calm - N/A   Clear
9:15 AM 44.8 °F - 44.4 °F 99% 30.06 in 10.0 mi Calm Calm - N/A   Clear
9:35 AM 48.4 °F - 45.1 °F 89% 30.06 in 10.0 mi Calm Calm - N/A   Clear
9:55 AM 52.0 °F - 45.7 °F 79% 30.06 in 10.0 mi Calm Calm - N/A   Clear
10:15 AM 54.1 °F - 41.7 °F 63% 30.06 in 10.0 mi SW 3.5 mph - N/A   Clear
10:35 AM 55.4 °F - 40.5 °F 57% 30.05 in 10.0 mi SSW 3.5 mph - N/A   Clear
10:55 AM 57.2 °F - 40.5 °F 54% 30.05 in 10.0 mi Calm Calm - N/A   Clear
11:15 AM 57.7 °F - 40.5 °F 53% 30.04 in 10.0 mi WSW 4.6 mph - N/A   Clear
11:35 AM 59.0 °F - 39.9 °F 49% 30.02 in 10.0 mi Calm Calm - N/A   Clear
11:55 AM 60.1 °F - 39.7 °F 47% 30.01 in 10.0 mi WSW 3.5 mph - N/A   Clear
12:15 PM 61.0 °F - 40.8 °F 47% 30.00 in 10.0 mi WSW 6.9 mph - N/A   Clear
12:35 PM 61.0 °F - 40.5 °F 47% 29.98 in 10.0 mi WSW 6.9 mph - N/A   Clear
12:55 PM 61.5 °F - 41.5 °F 48% 29.96 in 10.0 mi WNW 5.8 mph - N/A   Clear
1:15 PM 61.5 °F - 41.0 °F 47% 29.95 in 10.0 mi West 5.8 mph - N/A   Clear
1:35 PM 62.2 °F - 40.6 °F 45% 29.95 in 10.0 mi WNW 10.4 mph - N/A   Clear
1:55 PM 63.0 °F - 40.1 °F 43% 29.94 in 10.0 mi West 10.4 mph 16.1 mph N/A   Clear
2:15 PM 62.4 °F - 38.5 °F 41% 29.94 in 10.0 mi WNW 5.8 mph 16.1 mph N/A   Clear
2:35 PM 63.0 °F - 41.9 °F 46% 29.94 in 10.0 mi WNW 12.7 mph 17.3 mph N/A   Clear
2:55 PM 61.3 °F - 41.7 °F 49% 29.94 in 10.0 mi WNW 11.5 mph - N/A   Scattered Clouds
3:15 PM 61.9 °F - 40.6 °F 46% 29.94 in 10.0 mi WNW 10.4 mph - N/A   Clear
3:35 PM 61.7 °F - 39.2 °F 43% 29.94 in 10.0 mi WNW 5.8 mph - N/A   Clear
3:55 PM 61.2 °F - 38.7 °F 43% 29.95 in 10.0 mi WNW 6.9 mph - N/A   Scattered Clouds
4:15 PM 59.7 °F - 38.3 °F 45% 29.96 in 10.0 mi WNW 10.4 mph 19.6 mph N/A   Scattered Clouds
4:35 PM 58.6 °F - 38.3 °F 47% 29.97 in 10.0 mi NW 9.2 mph - N/A   Clear
4:55 PM 57.4 °F - 38.7 °F 50% 29.97 in 10.0 mi NNW 9.2 mph - N/A   Mostly Cloudy
5:15 PM 54.7 °F - 38.8 °F 55% 29.98 in 10.0 mi NW 9.2 mph - N/A   Mostly Cloudy
5:35 PM 53.8 °F - 37.6 °F 54% 29.99 in 10.0 mi NW 8.1 mph 18.4 mph N/A   Overcast
5:55 PM 53.1 °F - 37.4 °F 55% 29.99 in 10.0 mi NW 8.1 mph - N/A   Overcast
6:15 PM 52.7 °F - 37.4 °F 56% 29.99 in 10.0 mi WNW 9.2 mph - N/A   Overcast
6:35 PM 51.3 °F - 36.9 °F 58% 29.99 in 10.0 mi NW 8.1 mph 17.3 mph N/A   Overcast
6:55 PM 50.2 °F - 37.4 °F 62% 30.00 in 10.0 mi WNW 4.6 mph - N/A   Mostly Cloudy
7:15 PM 49.3 °F - 37.6 °F 64% 30.01 in 10.0 mi NW 8.1 mph - N/A   Overcast
7:35 PM 48.7 °F - 37.6 °F 65% 30.02 in 10.0 mi NW 5.8 mph - N/A   Overcast
7:55 PM 48.2 °F - 37.4 °F 66% 30.02 in 10.0 mi NW 5.8 mph - N/A   Overcast
8:15 PM 47.1 °F - 36.9 °F 68% 30.03 in 10.0 mi NW 6.9 mph - N/A   Scattered Clouds
8:35 PM 46.0 °F 43.1 °F 36.7 °F 70% 30.03 in 10.0 mi WNW 5.8 mph - N/A   Clear
8:55 PM 45.3 °F 43.0 °F 36.5 °F 71% 30.04 in 10.0 mi WNW 4.6 mph - N/A   Clear
9:15 PM 45.0 °F 42.6 °F 36.1 °F 71% 30.04 in 10.0 mi NW 4.6 mph - N/A   Clear
9:35 PM 44.6 °F 42.2 °F 35.1 °F 69% 30.04 in 10.0 mi WNW 4.6 mph - N/A   Scattered Clouds
9:55 PM 44.1 °F 40.8 °F 33.8 °F 67% 30.04 in 10.0 mi NW 5.8 mph - N/A   Clear
10:15 PM 43.2 °F 41.5 °F 32.9 °F 67% 30.04 in 10.0 mi WNW 3.5 mph - N/A   Clear
10:35 PM 41.9 °F 39.0 °F 33.3 °F 71% 30.05 in 10.0 mi WNW 4.6 mph - N/A   Clear
10:55 PM 41.9 °F 40.0 °F 33.6 °F 72% 30.05 in 10.0 mi WNW 3.5 mph - N/A   Clear
11:15 PM 41.7 °F 38.0 °F 32.7 °F 70% 30.06 in 10.0 mi WNW 5.8 mph - N/A   Clear
11:35 PM 41.2 °F 37.3 °F 31.1 °F 67% 30.07 in 10.0 mi NW 5.8 mph - N/A   Clear
11:55 PM 41.2 °F 38.2 °F 28.4 °F 60% 30.07 in 10.0 mi NW 4.6 mph - N/A   Clear